www.pogodaiklimat.ru

Погода и климат >> Архив погоды >> Норвегия >> Аэропорт Vaeroy Heliport


ПОГОДА в Аэропорту Vaeroy Heliport

  • Прогноз погоды в Аэропорту Vaeroy Heliport
  • Монитор погоды в Аэропорту Vaeroy Heliport

АРХИВ ПОГОДЫ в Аэропорту Vaeroy Heliport

Время (UTC), дата Ветер
(напр.,м/с)
 
Видим.   Явления Облачность Т
(С)
Тd
(С)
f
(%)
Тe
(С)
Тes
(С)
Комфортность P
(гПа)
Po
(гПа)
Тmin
(С)
Tmax
(С)
R
(мм)
R24
(мм)
S
(см)
19 18.08 ЮЗ 2
{5}
н/о н/о +13.0 +11.4 90 +12 +12 1001.5 1001.0
20 18.08 ЮЗ 1
{3}
н/о н/о +12.4 +11.0 91 +12 +12 1001.7 1001.2
21 18.08 З 1
{2}
н/о н/о +11.7 +10.5 92 +11 +11 1001.7 1001.2
22 18.08 штиль 0
{2}
н/о н/о +11.3 +10.2 93 +11 +11 1001.8 1001.3
23 18.08 СВ 2
{3}
н/о н/о +12.0 +11.0 94 +11 +11 1001.5 1001.0
00 19.08 СВ 2
{5}
н/о н/о +12.0 +11.1 94 +11 +11 1001.1 1000.7
01 19.08 С 3
{4}
н/о н/о +12.0 +11.3 95 +10 +10 1000.6 1000.1
02 19.08 СВ 4
{5}
н/о н/о +12.1 +11.4 95 +10 +10 1000.6 1000.1
03 19.08 С 6
{7}
н/о н/о +12.3 +11.6 95 +10 +10 999.9 999.5
04 19.08 С 7
{8}
н/о н/о +12.5 +11.7 95 +10 +10 999.5 999.0
05 19.08 С 6
{8}
н/о н/о +12.9 +11.4 91 +10 +10 999.0 998.6
06 19.08 СВ 5
{8}
н/о н/о +12.9 +11.4 91 +11 +11 998.8 998.3 +11.0 +13.6
07 19.08 С 5
{6}
н/о н/о +13.5 +11.5 88 +11 +11 998.4 997.9
08 19.08 С 5
{6}
н/о н/о +14.3 +11.3 82 +13 +13 997.9 997.5
09 19.08 С 5
{7}
н/о н/о +14.7 +11.2 80 +13 +13 997.5 997.0
10 19.08 С 4
{6}
н/о н/о +15.3 +11.2 77 +14 +14 997.2 996.7
11 19.08 С 4
{7}
н/о н/о +15.5 +11.4 77 +15 +15 997.1 996.6
12 19.08 С 4
{7}
н/о н/о +15.9 +11.3 74 +15 +15 997.1 996.7
13 19.08 С 6
{7}
н/о н/о +14.5 +11.6 83 +13 +13 997.3 996.8
14 19.08 С 4
{7}
н/о н/о +14.8 +11.8 82 +14 +14 997.4 996.9
15 19.08 С 6
{8}
н/о н/о +13.1 +11.5 90 +11 +11 997.6 997.2
16 19.08 СЗ 6
{9}
н/о н/о +12.9 +11.3 90 +10 +10 997.7 997.3
17 19.08 СЗ 7
{11}
н/о н/о +12.7 +11.1 90 +10 +10 997.7 997.2
18 19.08 С 7
{11}
н/о н/о +12.3 +10.9 91 +9 +9 998.2 997.8 +12.3 +15.9
19 19.08 СЗ 4
{10}
н/о н/о +12.0 +10.6 91 +10 +10 998.7 998.2
20 19.08 СЗ 6
{10}
н/о н/о +11.9 +10.8 93 +9 +9 999.1 998.6
21 19.08 С 5
{8}
н/о н/о +12.0 +11.1 94 +9 +9 999.6 999.2
22 19.08 С 2
{7}
н/о н/о +12.0 +11.0 94 +11 +11 1000.2 999.8
23 19.08 З 1
{3}
н/о н/о +12.1 +11.1 94 +12 +12 1000.7 1000.2
00 20.08 З 1
{10}
н/о н/о +12.1 +11.0 93 +12 +12 1001.0 1000.5
01 20.08 штиль 0
{2}
н/о н/о +12.3 +11.1 92 +12 +12 1001.4 1000.9
02 20.08 С 3
{3}
н/о н/о +12.1 +11.1 94 +10 +10 1001.8 1001.3
03 20.08 С 3
{5}
н/о н/о +11.6 +10.8 95 +10 +10 1002.1 1001.6
04 20.08 С 3
{4}
н/о н/о +11.9 +11.2 95 +10 +10 1002.5 1002.1
05 20.08 СВ 3
{4}
н/о н/о +11.8 +11.2 96 +10 +10 1003.1 1002.6
06 20.08 З 2
{5}
н/о н/о +12.1 +11.4 95 +11 +11 1003.6 1003.1 +11.5 +12.5
07 20.08 ЮЗ 2
{3}
н/о н/о +12.7 +11.8 94 +12 +12 1004.0 1003.5
08 20.08 Ю 2
{7}
н/о н/о +13.4 +11.9 91 +13 +13 1004.4 1003.9
09 20.08 Ю 3
{4}
н/о н/о +13.9 +11.7 87 +13 +13 1005.0 1004.5
10 20.08 Ю 4
{5}
н/о н/о +14.8 +12.3 85 +14 +14 1005.4 1004.9
11 20.08 ЮЗ 3
{4}
н/о н/о +13.7 +12.3 91 +12 +12 1005.8 1005.4
12 20.08 Ю 3
{7}
н/о н/о +14.3 +13.2 93 +13 +13 1006.3 1005.8
13 20.08 Ю 3
{4}
н/о н/о +14.5 +12.8 90 +14 +14 1006.5 1006.0
14 20.08 Ю 4
{5}
н/о н/о +14.7 +12.5 87 +13 +13 1006.9 1006.4
15 20.08 Ю 5
{7}
н/о н/о +14.4 +12.2 87 +13 +13 1007.2 1006.7
16 20.08 Ю 5
{8}
н/о н/о +14.1 +11.8 86 +12 +12 1007.4 1007.0
17 20.08 Ю 6
{8}
н/о н/о +14.0 +11.8 87 +12 +12 1007.7 1007.2
18 20.08 Ю 6
{8}
н/о н/о +14.0 +11.6 85 +12 +12 1007.8 1007.4 +12.1 +15.0
19 20.08 Ю 8
{9}
н/о н/о +14.0 +11.0 82 +11 +11 1007.8 1007.3
20 20.08 Ю 9
{12}
н/о н/о +14.0 +10.7 80 +11 +11 1007.8 1007.3
21 20.08 Ю 10
{13}
н/о н/о +13.8 +11.1 84 +11 +11 1007.6 1007.2
22 20.08 Ю 11
{16}
н/о н/о +13.3 +11.5 89 +10 +10 1007.5 1007.0
23 20.08 Ю 11
{15}
н/о н/о +13.2 +11.0 87 +10 +10 1007.7 1007.2
00 21.08 Ю 9
{16}
н/о н/о +13.1 +11.1 88 +10 +10 1008.0 1007.5
01 21.08 Ю 10
{12}
н/о н/о +13.1 +11.0 87 +10 +10 1008.1 1007.6
02 21.08 Ю 10
{12}
н/о н/о +13.0 +11.3 89 +10 +10 1008.1 1007.7
03 21.08 Ю 10
{12}
н/о н/о +12.9 +11.1 89 +10 +10 1008.1 1007.6
04 21.08 Ю 10
{13}
н/о н/о +12.6 +11.1 91 +9 +9 1008.2 1007.7
05 21.08 Ю 10
{14}
н/о н/о +12.5 +11.2 92 +9 +9 1008.3 1007.9
06 21.08 Ю 7
{14}
н/о н/о +12.2 +10.9 92 +9 +9 1008.5 1008.1 +11.9 +14.1
07 21.08 Ю 8
{10}
н/о н/о +13.0 +11.2 89 +10 +10 1008.8 1008.3
08 21.08 Ю 9
{12}
н/о н/о +12.9 +11.3 90 +10 +10 1009.0 1008.5
09 21.08 ЮЗ 8
{13}
н/о н/о +13.1 +11.8 92 +10 +10 1009.5 1009.0
10 21.08 ЮЗ 5
{11}
н/о н/о +13.8 +11.9 88 +12 +12 1010.1 1009.6
11 21.08 З 3
{8}
н/о н/о +14.4 +11.1 81 +13 +13 1011.2 1010.7
12 21.08 З 4
{13}
н/о н/о +13.6 +10.9 84 +12 +12 1012.0 1011.5
13 21.08 З 4
{9}
н/о н/о +14.1 +11.2 83 +13 +13 1013.0 1012.5
14 21.08 З 4
{9}
н/о н/о +13.1 +10.4 84 +11 +11 1013.9 1013.4
15 21.08 З 3
{8}
н/о н/о +12.9 +9.6 80 +12 +12 1014.7 1014.3
16 21.08 З 4
{8}
н/о н/о +12.4 +9.4 82 +10 +10 1015.3 1014.8
17 21.08 З 3
{6}
н/о н/о +12.5 +8.6 77 +11 +11 1015.9 1015.4
18 21.08 З 3
{9}
н/о н/о +12.3 +8.7 79 +11 +11 1016.3 1015.8 +12.2 +15.0
19 21.08 СЗ 2
{6}
н/о н/о +12.3 +8.1 76 +11 +11 1016.5 1016.0
20 21.08 ЮЗ 1
{5}
н/о н/о +12.6 +7.7 72 +13 +13 1016.8 1016.3
21 21.08 Ю 2
{2}
н/о н/о +12.4 +8.3 76 +12 +12 1017.1 1016.6
22 21.08 ЮЗ 1
{3}
н/о н/о +12.0 +8.8 81 +12 +12 1017.1 1016.7
23 21.08 ЮЗ 2
{4}
н/о н/о +12.1 +9.1 82 +11 +11 1017.3 1016.8
00 22.08 ЮЗ 2
{6}
н/о н/о +11.9 +10.2 89 +11 +11 1017.5 1017.0
01 22.08 ЮЗ 2
{3}
н/о н/о +12.0 +10.0 88 +11 +11 1017.5 1017.0
02 22.08 Ю 3
{4}
н/о н/о +11.8 +9.9 88 +10 +10 1017.4 1016.9
03 22.08 Ю 3
{3}
н/о н/о +11.5 +10.0 90 +10 +10 1017.3 1016.8
04 22.08 ЮЗ 3
{5}
н/о н/о +11.7 +10.6 93 +10 +10 1017.3 1016.8
05 22.08 ЮЗ 2
{4}
н/о н/о +11.4 +10.1 92 +10 +10 1017.2 1016.7
06 22.08 Ю 3
{5}
н/о н/о +12.3 +10.8 91 +11 +11 1016.8 1016.4 +11.4 +12.6
07 22.08 Ю 3
{5}
н/о н/о +12.7 +10.8 88 +11 +11 1016.8 1016.3
08 22.08 Ю 4
{6}
н/о н/о +13.1 +10.4 84 +11 +11 1016.8 1016.3
09 22.08 Ю 6
{9}
н/о н/о +12.5 +10.7 89 +10 +10 1016.7 1016.2
10 22.08 Ю 6
{9}
н/о н/о +13.0 +11.5 91 +11 +11 1016.5 1016.0
11 22.08 ЮЗ 5
{7}
н/о н/о +13.6 +11.7 88 +12 +12 1016.2 1015.8
12 22.08 ЮЗ 4
{9}
н/о н/о +13.8 +10.6 81 +12 +12 1016.5 1016.0
13 22.08 ЮЗ 3
{6}
н/о н/о +13.9 +11.1 83 +13 +13 1016.7 1016.2
14 22.08 Ю 4
{5}
н/о н/о +13.8 +11.4 85 +12 +12 1016.6 1016.1
15 22.08 Ю 3
{5}
н/о н/о +13.5 +10.9 84 +12 +12 1016.4 1015.9
16 22.08 Ю 3
{6}
н/о н/о +13.6 +11.1 85 +12 +12 1016.2 1015.7
17 22.08 ЮЗ 4
{5}
н/о н/о +12.5 +10.5 88 +11 +11 1015.8 1015.3
18 22.08 З 2
{6}
н/о н/о +12.4 +10.2 86 +11 +11 1015.5 1015.1 +12.2 +14.2
19 22.08 С 2
{2}
н/о н/о +11.3 +9.7 90 +10 +10 1015.1 1014.7
20 22.08 СВ 4
{4}
н/о н/о +11.1 +9.9 92 +9 +9 1015.0 1014.5
21 22.08 С 4
{4}
н/о н/о +10.9 +10.0 94 +8 +8 1014.6 1014.1
22 22.08 С 4
{5}
н/о н/о +11.2 +10.3 94 +9 +9 1014.2 1013.7
23 22.08 С 6
{6}
н/о н/о +11.3 +10.5 95 +8 +8 1013.7 1013.2
00 23.08 С 7
{8}
н/о н/о +11.3 +10.4 94 +8 +8 1013.3 1012.9
01 23.08 С 6
{7}
н/о н/о +11.2 +10.3 94 +8 +8 1013.0 1012.5
02 23.08
{7}
н/о н/о +11.2 +10.1 93 1012.6 1012.1
03 23.08 С 5
{7}
н/о н/о +11.2 +9.8 91 +8 +8 1012.4 1011.9
04 23.08 СВ 6
{7}
н/о н/о +11.4 +9.6 89 +8 +8 1012.1 1011.6
05 23.08 СВ 6
{7}
н/о н/о +11.5 +9.4 87 +9 +9 1012.0 1011.5
06 23.08 С 5
{7}
н/о н/о +11.9 +9.4 85 +9 +9 1012.0 1011.6 +10.8 +12.5
07 23.08 С 4
{6}
н/о н/о +12.3 +9.1 81 +10 +10 1012.2 1011.8
08 23.08 С 4
{5}
н/о н/о +12.7 +9.0 78 +11 +11 1012.4 1012.0
09 23.08 С 4
{5}
н/о н/о +13.0 +9.2 78 +11 +11 1012.7 1012.2
10 23.08 С 4
{6}
н/о н/о +13.3 +9.2 76 +12 +12 1013.0 1012.5
11 23.08 С 5
{5}
н/о н/о +13.0 +9.8 81 +11 +11 1013.5 1013.0
12 23.08 С 4
{6}
н/о н/о +13.3 +9.9 80 +12 +12 1013.8 1013.3
13 23.08 С 6
{7}
н/о н/о +13.1 +9.7 80 +11 +11 1014.1 1013.6
14 23.08 С 6
{9}
н/о н/о +13.2 +9.7 79 +11 +11 1014.5 1014.1
15 23.08 С 6
{10}
н/о н/о +12.8 +9.6 81 +10 +10 1015.0 1014.5
16 23.08 С 8
{12}
н/о н/о +12.3 +9.5 83 +9 +9 1015.4 1014.9
17 23.08 С 9
{13}
н/о н/о +11.8 +9.4 85 +8 +8 1015.9 1015.4
18 23.08 С 7
{13}
н/о н/о +11.5 +9.0 85 +8 +8 1016.4 1015.9 +11.5 +13.8
19 23.08 С 8
{13}
н/о н/о +11.1 +8.8 86 +7 +7 1017.1 1016.6
20 23.08 С 9
{14}
н/о н/о +10.9 +8.6 86 +7 +7 1017.7 1017.2
21 23.08 С 8
{14}
н/о н/о +10.7 +8.4 86 +7 +7 1018.1 1017.6
22 23.08 СЗ 5 н/о н/о +10.7 +8.3 85 +8 +8 1018.9 1018.4
23 23.08 СЗ 6
{11}
н/о н/о +10.5 +8.3 86 +7 +7 1019.4 1019.0
00 24.08 С 5
{14}
н/о н/о +10.5 +8.1 85 +8 +8 1020.0 1019.5
01 24.08 С 5
{8}
н/о н/о +10.7 +7.8 82 +8 +8 1020.6 1020.1
02 24.08 С 6
{8}
н/о н/о +10.7 +7.1 78 +8 +8 1021.3 1020.8
03 24.08 СЗ 2
{7}
н/о н/о +10.6 +7.2 79 +9 +9 1021.8 1021.3
04 24.08 СЗ 3
{4}
н/о н/о +10.6 +7.1 79 +9 +9 1022.1 1021.6
05 24.08 СЗ 3
{5}
н/о н/о +10.3 +6.8 79 +8 +8 1022.4 1021.9
06 24.08 СВ 1
{8}
н/о н/о +10.8 +7.3 79 +11 +11 1022.9 1022.4 +10.3 +11.5
07 24.08 СВ 3
{5}
н/о н/о +11.1 +7.6 79 +9 +9 1023.2 1022.7
08 24.08 СВ 3
{4}
н/о н/о +11.3 +7.9 80 +10 +10 1023.4 1023.0
09 24.08 СЗ 2
{4}
н/о н/о +11.9 +8.1 78 +11 +11 1023.9 1023.4
10 24.08 СВ 3
{4}
н/о н/о +11.9 +7.7 75 +10 +10 1024.1 1023.6
11 24.08 В 4
{5}
н/о н/о +12.0 +8.2 78 +10 +10 1024.0 1023.5
12 24.08 В 3
{5}
н/о н/о +12.3 +9.2 81 +11 +11 1024.2 1023.7
13 24.08 В 4
{5}
н/о н/о +12.5 +9.3 81 +11 +11 1023.9 1023.4
14 24.08 В 4
{5}
н/о н/о +12.3 +9.3 82 +10 +10 1023.7 1023.2
15 24.08 В 4
{5}
н/о н/о +12.3 +9.3 82 +10 +10 1023.3 1022.8
16 24.08 В 4
{5}
н/о н/о +12.2 +9.4 83 +10 +10 1022.7 1022.2
17 24.08 В 4
{5}
н/о н/о +12.1 +9.6 85 +10 +10 1022.0 1021.5
18 24.08 Ю 3
{5}
н/о н/о +12.5 +9.5 82 +11 +11 1021.6 1021.1 +10.8 +12.8
19 24.08 Ю 2
{3}
н/о н/о +12.3 +9.5 83 +11 +11 1021.1 1020.6
20 24.08 ЮВ 2
{3}
н/о н/о +12.3 +9.3 82 +11 +11 1020.6 1020.1
21 24.08 ЮВ 3
{4}
н/о н/о +12.4 +9.4 82 +11 +11 1020.0 1019.5
22 24.08 ЮВ 4
{4}
н/о н/о +12.5 +10.4 87 +11 +11 1019.2 1018.8
23 24.08 ЮВ 5
{5}
н/о н/о +12.3 +10.8 91 +10 +10 1018.6 1018.1
00 25.08 В 5
{6}
н/о н/о +12.2 +11.0 92 +10 +10 1017.9 1017.4
01 25.08 ЮВ 5
{7}
н/о н/о +12.2 +11.3 94 +10 +10 1017.1 1016.6
02 25.08 ЮВ 7
{8}
н/о н/о +12.1 +11.4 95 +9 +9 1016.0 1015.5
03 25.08 ЮВ 8
{10}
н/о н/о +12.0 +11.4 96 +9 +9 1014.9 1014.4
04 25.08 ЮВ 7
{10}
н/о н/о +12.2 +11.5 95 +9 +9 1014.0 1013.6
05 25.08 Ю 8
{11}
н/о н/о +12.5 +11.9 96 +9 +9 1013.4 1012.9
06 25.08 ЮЗ 6
{11}
н/о н/о +13.0 +12.6 97 +10 +10 1013.0 1012.5 +11.9 +13.2
07 25.08 ЮЗ 7
{11}
н/о н/о +13.1 +12.6 97 +10 +10 1012.8 1012.3
08 25.08 Ю 12
{14}
н/о н/о +13.1 +12.1 94 +9 +9 1012.3 1011.8
09 25.08 Ю 12
{16}
н/о н/о +12.7 +11.6 93 +9 +9 1011.7 1011.2
10 25.08 Ю 10
{14}
н/о н/о +12.7 +12.0 96 +9 +9 1010.8 1010.3
11 25.08 ЮЗ 10
{14}
н/о н/о +12.5 +11.9 96 +9 +9 1010.7 1010.3
12 25.08 Ю 11
{16}
н/о н/о +12.6 +11.9 95 +9 +9 1010.3 1009.8
13 25.08 Ю 10
{15}
н/о н/о +13.1 +12.2 94 +10 +10 1009.9 1009.4
14 25.08 ЮЗ 8
{14}
н/о н/о +12.6 +11.6 94 +9 +9 1009.7 1009.2
15 25.08 ЮЗ 9
{13}
н/о н/о +12.2 +11.1 93 +9 +9 1009.9 1009.4
16 25.08 ЮЗ 8
{13}
н/о н/о +12.0 +11.3 95 +9 +9 1009.8 1009.3
17 25.08 ЮЗ 10
{13}
н/о н/о +12.0 +11.4 96 +8 +8 1009.9 1009.4
18 25.08 ЮЗ 10
{15}
н/о н/о +12.3 +11.5 95 +9 +9 1010.2 1009.7 +11.9 +13.2
19 25.08 ЮЗ 10
{17}
н/о н/о +12.7 +11.7 94 +9 +9 1010.7 1010.3

 

Местоположение метеостанции Аэропорт Vaeroy Heliport (Норвегия): широта 67.65 долгота 12.72 высота над уровнем моря 4 м.

В архиве по умолчанию представлена погода в Аэропорту Vaeroy Heliport за последнюю неделю. Архивные данные за месяц целиком и за предыдущие месяцы, начиная с января 2011 года, Вы можете получить, выбрав интересующий диапазон дат из раскрывающегося списка и нажав кнопку "Ввод!".


*Определитесь, кто Вы:
робот инопланетянин человек

Внимание! Время в таблицах - всемирное. Для получения местного времени необходимо прибавить поправку, которая равна 1 ч.

Смотрите также архив погоды в соседних городах и на ближайших метеорологических станциях:

Погода в Рост аэропорту (Норвегия) (30 км)
Погода в Хеллигвере (Норвегия) (57 км)
Погода в Лекнесе (Норвегия) (68 км)
Погода в Бодо (Норвегия) (82 км)
Погода в Рейпе (Норвегия) (92 км)
Погода на Маяке Skrova (Норвегия) (98 км)
Погода на Мыкене (Норвегия) (98 км)
Погода в Сволваер аэропорту (Норвегия) (105 км)
Погода в Бё (Норвегия) (128 км)
Погода в Сетсе (Норвегия) (130 км)

Пояснения к столбцам:

Ветер - указаны скорость ветра в м/с - средняя за 10 мин, порывы в срок и между сроками (в фигурных скобках) и направление, откуда дует ветер: С - северный, СВ - северо-восточный, В - восточный, ЮВ - юго-восточный, Ю - южный, ЮЗ - юго-западный, З - западный, СЗ - северо-западный.
Видимость - горизонтальная дальность видимости в метрах или километрах. При видимости от 1 до 10 км при отсутствии осадков обычно наблюдается дымка, при ухудшении видимости до 1 км и менее - туман. В сухую погоду видимость может ухудшаться дымом, пылью или мглою.
Явления - указаны атмосферные явления, наблюдавшиеся в срок или в последний час перед сроком; фигурными скобками обозначены явления, наблюдавшиеся между сроками (за 1-3 часа до срока); квадратными скобками обозначены град или гололедные отложения с указанием их диаметра в мм.
Облачность - указаны через наклонную черту общая и нижняя облачность в баллах и высота нижней границы облаков в метрах; квадратными скобками обозначены формы облаков: Ci - перистые, Cs - перисто-слоистые, Cc - перисто-кучевые, Ac - высококучевые, As - высокослоистые, Sc - слоисто-кучевые, Ns - слоисто-дождевые, Cu - кучевые, Cb - кучево-дождевые. Подробнее классификацию облаков см. в Атласе облаков (PDF).
T - Температура воздуха - температура, измеренная на высоте 2 м над землей.
Td - Температура точки росы - температура, при понижении до которой содержащийся в воздухе водяной пар достигнет насыщения.
f - Относительная влажность воздуха - влажноcть воздуха, измеренная на высоте 2 м над землей.
Te - Эффективная температура - температура, которую ощущает одетый по сезону человек в тени. Характеристика душности погоды. При расчете учитывается влияние влажности воздуха и скорости ветра на теплоощущения человека.
Tes - Эффективная температура на солнце - температура, которую ощущает человек, с поправкой на солнечный нагрев. Характеристика знойности погоды. Зависит от высоты солнца над горизонтом, облачности и скорости ветра. Ночью, в пасмурную погоду, а также при ветре 12 м/с и более поправка равна нулю.
P - Атмосферное давление - приведенное к уровню моря атмосферное давление.
Po - Атмосферное давление - измеренное на уровне метеостанции атмосферное давление.
Tmin - Минимальная температура - минимум температуры воздуха на высоте 2 м над землей.
Tmax - Максимальная температура - максимум температуры воздуха на высоте 2 м над землей.
R - Количество осадков - Количество выпавших осадков за период времени, мм. При наведении курсора мыши на число - период времени, за который выпало указанное количество осадков.
R24 - Количество осадков - Количество выпавших осадков за 24 часа, мм.
S - Снежный покров - Высота снежного покрова, см. При наведении курсора мыши на число - состояние снежного покрова и степень покрытия местности в баллах.